This is the latest recevied weather packets stored in our database for station/object K7PMV-13. If no packets are shown the sender has not sent any weather packets the latest 1 day(s).
| Time | Temp. | Humidity | Pressure | Rain* | Wind** | Luminosity | Snow |
|---|---|---|---|---|---|---|---|
| 1778052382 | 15.56° C | 45% | 1010.2 hPa | 0 mm | - | 0 W/m² | - |
| 1778051745 | 16.11° C | 44% | 1010 hPa | 0 mm | - | 0 W/m² | - |
| 1778050119 | 16.67° C | 45% | 1009.9 hPa | 0 mm | - | 0 W/m² | - |
| 1778048836 | 17.22° C | 45% | 1009.7 hPa | 0 mm | - | 0 W/m² | - |
| 1778048521 | 17.22° C | 45% | 1009.6 hPa | 0 mm | - | 0 W/m² | - |
| 1778047567 | 17.22° C | 43% | 1009.6 hPa | 0 mm | - | 0 W/m² | - |
| 1778046934 | 17.22° C | 42% | 1009.6 hPa | 0 mm | - | 0 W/m² | - |
| 1778046619 | 17.22° C | 42% | 1009.6 hPa | 0 mm | - | 0 W/m² | - |
| 1778046304 | 17.78° C | 41% | 1009.5 hPa | 0 mm | - | 0 W/m² | - |
| 1778045973 | 17.78° C | 41% | 1009.5 hPa | 0 mm | - | 0 W/m² | - |
| 1778045659 | 17.78° C | 40% | 1009.5 hPa | 0 mm | - | 0 W/m² | - |
| 1778045344 | 17.78° C | 40% | 1009.4 hPa | 0 mm | - | 0 W/m² | - |
| 1778044708 | 18.33° C | 38% | 1009.2 hPa | 0 mm | - | 0 W/m² | - |
| 1778044393 | 18.89° C | 37% | 1009.3 hPa | 0 mm | - | 0 W/m² | - |
| 1778044078 | 18.89° C | 37% | 1009.2 hPa | 0 mm | - | 0 W/m² | - |
| 1778043757 | 19.44° C | 36% | 1009.3 hPa | 0 mm | - | 0 W/m² | - |
| 1778043441 | 19.44° C | 35% | 1009.2 hPa | 0 mm | - | 0 W/m² | - |
| 1778042766 | 20° C | 34% | 1008.9 hPa | 0 mm | - | 0 W/m² | - |
| 1778042137 | 20.56° C | 34% | 1008.9 hPa | 0 mm | - | 0 W/m² | - |
| 1778041499 | 20.56° C | 34% | 1008.9 hPa | 0 mm | - | 0 W/m² | - |
| 1778041184 | 20.56° C | 34% | 1008.8 hPa | 0 mm | - | 0 W/m² | - |
| 1778040868 | 20.56° C | 34% | 1008.8 hPa | 0 mm | - | 0 W/m² | - |
| 1778040235 | 20.56° C | 34% | 1008.7 hPa | 0 mm | - | 0 W/m² | - |
| 1778039915 | 20.56° C | 33% | 1008.6 hPa | 0 mm | - | 0 W/m² | - |
| 1778039593 | 20.56° C | 33% | 1008.6 hPa | 0 mm | - | 0 W/m² | - |
* Rain latest hour (hover to see other rain measurements)
** Current wind speed in m/s (hover to see current wind gust speed)